Skip Page Navigation
NASA JPL Caltech
NASA Logo - Jet Propulsion Laboratory + View the NASA Portal
+ Near-Earth Object (NEO) Program
Search JPL
JPL Home Earth Solar System Stars & Galaxies Technology
JPL Solar System Dynamics
BODIES ORBITS EPHEMERIDES TOOLS PHYSICAL DATA DISCOVERY FAQ SITE MAP
JPL Small-Body Database Browser
Search: [ help ]  
81915 Hartwick (2000 NS11)
Classification: Outer Main-belt Asteroid          SPK-ID: 2081915
Ephemeris | Orbit Diagram | Orbital Elements | Physical Parameters | Discovery Circumstances ]

[ hide orbit diagram ]
Orbit Diagram
Note: Make sure you have Java enabled on your browser to see the applet. This applet is provided as a 3D orbit visualization tool. The applet was implemented using 2-body methods, and hence should not be used for determining accurate long-term trajectories (over several years or decades) or planetary encounter circumstances. For accurate long-term ephemerides, please instead use our Horizons system.
Orbit Viewer

Additional Notes: the orbits shown in the applet are color coded. The planets are white lines, and the asteroid/comet is a blue line. The bright white line indicates the portion of the orbit that is above the ecliptic plane, and the darker portion is below the ecliptic plane. Likewise for the asteroid/comet orbit, the light blue indicates the portion above the ecliptic plane, and the dark blue the portion below the ecliptic plane.

Orbit Viewer applet originally written and kindly provided by Osamu Ajiki (AstroArts), and further modified by Ron Baalke (JPL).


Orbital Elements at Epoch 2456400.5 (2013-Apr-18.0) TDB
Reference: MPO240785 (heliocentric ecliptic J2000)
 Element Value Uncertainty (1-sigma)   Units 
e 0.0426538 n/a  
a 3.2135875 n/a AU
q 3.0765158 n/a AU
i 9.67306 n/a deg
node 230.82871 n/a deg
peri 298.75621 n/a deg
M 230.67172 n/a deg
tp 2457156.4179142
(2015-May-13.91791420)
n/a JED
period 2104.1836256
5.76
n/a
n/a
d
yr
n 0.17108773 n/a deg/d
Q 3.3506592 n/a AU
  Orbit Determination Parameters
   # obs. used (total)      322  
   first obs. used      1998-??-??  
   last obs. used      2012-10-22  
   # oppositions      11  
   planetary ephem.      DE403  
   condition code      0  
   fit RMS      0.53  
   data source      MPC:mpn  
   producer      MPCLINUX  

Additional Information
 T_jup = 3.167 

Ephemeris | Orbit Diagram | Orbital Elements | Physical Parameters | Discovery Circumstances ]

Physical Parameter Table
Parameter Symbol Value Units Sigma Reference Notes
absolute magnitude H 14.1 mag n/a MPO240785  

81915 Hartwick           Discovered 2000 July 15 by D. D. Balam at the Dominion Astrophysical Observatory, Victoria.
F. David A. Hartwick (b. 1941) is a professor of physics and astronomy at the University of Victoria and a leading authority in the field of galaxy formation and evolution. He is legendary for his encyclopedic knowledge of astronomy.
NOTE: some special characters may not display properly (any characters within {} are an attempt to place the proper accent above a character)
Reference: 20040928/MPCPages.arcLast Updated: 2004-09-28

Alternate Designations
 2000 NS11 = 1998 FQ98 
Ephemeris | Orbit Diagram | Orbital Elements | Physical Parameters | Discovery Circumstances ]
ABOUT SSD CREDITS/AWARDS PRIVACY/COPYRIGHT GLOSSARY LINKS
FirstGov 2013-Jun-18 22:39 UT
(server date/time)  
NASA Home Page
Site Manager:   Donald K. Yeomans
Webmaster  Alan B. Chamberlin